Location: Frankfurt am Main
(50.1109°N, 8.6821°E)
Time: 06:40:53
(UTC+01:00)

ISS - Pass Details

Date: 30 October 2021
Orbit: 417 x 422 km, 51.6° (Epoch: 04 December)

Event Time Altitude Azimuth Distance (km) Brightness Sun altitude
Exits shadow 05:39:14 35° 80° (E) 702 -2.1 -24.9°
Drops below altitude 10° 05:41:18 10° 75° (ENE) 1,502 0.1 -24.6°
Sets 05:43:24 0° 74° (ENE) 2,366 1.4 -24.2°
